Weather History for KGHG - January, 2013

Change the Weather History Date:

Thursday, January 10, 2013

  Actual Average (KPYM) Record (KPYM)
Temperature  
Mean Temperature 42 °F -  
Max Temperature 48 °F 35 °F 56 °F (1978)
Min Temperature 35 °F 15 °F -5 °F (1968)
Degree Days  
Heating Degree Days 24    
Moisture  
Dew Point 25 °F    
Average Humidity 51    
Maximum Humidity 70    
Minimum Humidity 37    
Precipitation  
Precipitation 0.00 in - - ()
Sea Level Pressure  
Sea Level Pressure 30.35 in    
Wind  
Wind Speed 10 mph (WNW)    
Max Wind Speed 16 mph    
Max Gust Speed 29 mph    
Visibility 10 miles    
Events      
Averages and records for this station are not official NWS values.
T = Trace of Precipitation, MM = Missing Value Source: NWS Daily Summary

Daily Weather History Graph

Daily Weather History Graph

Search for Another Location

Airport or City:

Trip Planner

Search our weather history database for the weather conditions in past years. The results will help you decide how hot, cold, wet, or windy it might be!

Date:

Astronomy

Jan. 10, 2013 Rise Set
Actual Time 7:10 AM EST 4:30 PM EST
Civil Twilight 6:39 AM EST 5:01 PM EST
Nautical Twilight 6:04 AM EST 5:36 PM EST
Astronomical Twilight 5:30 AM EST 6:10 PM EST
Moon 5:47 AM EST (1/10) 3:35 PM EST (1/10)
Length of Visible Light 10h 22m
Length of Day
9h 20m
Waning Crescent, 2% of the Moon is Illuminated
Jan 10
Waning Crescent
Jan 11
New
Jan 18
First Quarter
Jan 26
Full
Feb 3
Last Quarter

Hourly Weather History & Observations

Time (EST) Temp. Windchill Dew Point Humidity Pressure Visibility Wind Dir Wind Speed Gust Speed Precip Events Conditions
12:15 AM 44.6 °F 38.8 °F 32.0 °F 61% 30.06 in 10.0 mi WSW 11.5 mph 16.1 mph N/A   Clear
12:35 AM 44.6 °F 40.2 °F 32.0 °F 61% 30.06 in 10.0 mi WSW 8.1 mph - N/A   Clear
12:55 AM 44.6 °F 39.7 °F 30.2 °F 57% 30.07 in 10.0 mi WSW 9.2 mph 16.1 mph N/A   Clear
1:15 AM 44.6 °F 40.7 °F 30.2 °F 57% 30.07 in 10.0 mi WSW 6.9 mph - N/A   Clear
3:15 AM 44.6 °F 39.2 °F 28.4 °F 53% 30.11 in 10.0 mi West 10.4 mph 28.8 mph N/A   Clear
3:35 AM 44.6 °F 37.8 °F 28.4 °F 53% 30.13 in 10.0 mi West 15.0 mph 26.5 mph N/A   Clear
3:55 AM 42.8 °F 37.0 °F 28.4 °F 57% 30.14 in 10.0 mi West 10.4 mph 21.9 mph N/A   Clear
4:15 AM 42.8 °F 37.0 °F 28.4 °F 57% 30.15 in 10.0 mi West 10.4 mph 26.5 mph N/A   Clear
4:35 AM 42.8 °F 35.8 °F 28.4 °F 57% 30.16 in 10.0 mi West 13.8 mph 21.9 mph N/A   Clear
4:55 AM 42.8 °F 36.2 °F 26.6 °F 53% 30.17 in 10.0 mi WNW 12.7 mph 21.9 mph N/A   Clear
5:15 AM 42.8 °F 36.2 °F 26.6 °F 53% 30.18 in 10.0 mi WNW 12.7 mph 20.7 mph N/A   Clear
5:35 AM 42.8 °F 36.6 °F 26.6 °F 53% 30.19 in 10.0 mi WNW 11.5 mph 19.6 mph N/A   Clear
5:55 AM 42.8 °F 39.3 °F 26.6 °F 53% 30.21 in 10.0 mi West 5.8 mph - N/A   Clear
6:15 AM 42.8 °F 36.6 °F 24.8 °F 49% 30.23 in 10.0 mi West 11.5 mph 17.3 mph N/A   Clear
6:35 AM 42.8 °F 37.0 °F 24.8 °F 49% 30.23 in 10.0 mi West 10.4 mph 20.7 mph N/A   Clear
7:15 AM 41.0 °F 34.7 °F 24.8 °F 53% 30.26 in 10.0 mi West 10.4 mph 18.4 mph N/A   Clear
7:55 AM 42.8 °F 37.0 °F 23.0 °F 46% 30.28 in 10.0 mi West 10.4 mph 23.0 mph N/A   Clear
8:15 AM 42.8 °F 35.8 °F 23.0 °F 46% 30.30 in 10.0 mi West 13.8 mph 23.0 mph N/A   Clear
8:55 AM 42.8 °F 37.5 °F 23.0 °F 46% 30.32 in 10.0 mi WNW 9.2 mph 17.3 mph N/A   Clear
9:15 AM 44.6 °F 38.1 °F 23.0 °F 43% 30.33 in 10.0 mi West 13.8 mph 18.4 mph N/A   Clear
9:35 AM 44.6 °F 38.1 °F 23.0 °F 43% 30.33 in 10.0 mi West 13.8 mph 27.6 mph N/A   Clear
9:55 AM 44.6 °F 39.7 °F 23.0 °F 43% 30.34 in 10.0 mi NW 9.2 mph 23.0 mph N/A   Clear
10:15 AM 44.6 °F 37.8 °F 23.0 °F 43% 30.34 in 10.0 mi WNW 15.0 mph 21.9 mph N/A   Clear
10:35 AM 44.6 °F 37.8 °F 23.0 °F 43% 30.34 in 10.0 mi WNW 15.0 mph 21.9 mph N/A   Clear
10:55 AM 44.6 °F 38.4 °F 23.0 °F 43% 30.34 in 10.0 mi WNW 12.7 mph 18.4 mph N/A   Clear
11:15 AM 46.4 °F 39.8 °F 23.0 °F 40% 30.33 in 10.0 mi WNW 16.1 mph 26.5 mph N/A   Clear
11:35 AM 46.4 °F 40.7 °F 23.0 °F 40% 30.32 in 10.0 mi WNW 12.7 mph 23.0 mph N/A   Clear
11:55 AM 46.4 °F 41.1 °F 23.0 °F 40% 30.33 in 10.0 mi NW 11.5 mph 20.7 mph N/A   Clear
12:15 PM 46.4 °F 40.4 °F 23.0 °F 40% 30.33 in 10.0 mi WNW 13.8 mph 23.0 mph N/A   Clear
12:55 PM 46.4 °F 40.1 °F 23.0 °F 40% 30.33 in 10.0 mi WNW 15.0 mph 23.0 mph N/A   Clear
1:15 PM 48.2 °F - 23.0 °F 37% 30.34 in 10.0 mi West 10.4 mph 21.9 mph N/A   Clear
1:35 PM 48.2 °F - 23.0 °F 37% 30.34 in 10.0 mi West 9.2 mph 18.4 mph N/A   Clear
1:55 PM 48.2 °F - 23.0 °F 37% 30.35 in 10.0 mi WNW 16.1 mph 24.2 mph N/A   Clear
2:15 PM 48.2 °F - 23.0 °F 37% 30.36 in 10.0 mi NW 11.5 mph 19.6 mph N/A   Clear
2:35 PM 48.2 °F - 24.8 °F 40% 30.37 in 10.0 mi West 8.1 mph - N/A   Clear
2:55 PM 48.2 °F - 23.0 °F 37% 30.38 in 10.0 mi WNW 12.7 mph 17.3 mph N/A   Clear
3:15 PM 48.2 °F - 23.0 °F 37% 30.38 in 10.0 mi WNW 6.9 mph - N/A   Clear
3:35 PM 46.4 °F 42.9 °F 23.0 °F 40% 30.39 in 10.0 mi WNW 6.9 mph - N/A   Clear
3:55 PM 46.4 °F 42.9 °F 23.0 °F 40% 30.40 in 10.0 mi NNW 6.9 mph 17.3 mph N/A   Clear
4:15 PM 44.6 °F 41.4 °F 23.0 °F 43% 30.41 in 10.0 mi WNW 5.8 mph - N/A   Clear
4:35 PM 44.6 °F 40.7 °F 23.0 °F 43% 30.42 in 10.0 mi NW 6.9 mph - N/A   Clear
4:55 PM 42.8 °F 38.6 °F 24.8 °F 49% 30.42 in 10.0 mi West 6.9 mph 16.1 mph N/A   Clear
5:15 PM 42.8 °F 37.5 °F 24.8 °F 49% 30.44 in 10.0 mi WNW 9.2 mph - N/A   Clear
5:35 PM 42.8 °F 38.0 °F 23.0 °F 46% 30.44 in 10.0 mi NW 8.1 mph 17.3 mph N/A   Clear
5:55 PM 42.8 °F 40.1 °F 23.0 °F 46% 30.45 in 10.0 mi WNW 4.6 mph - N/A   Clear
6:15 PM 42.8 °F 39.3 °F 24.8 °F 49% 30.45 in 10.0 mi North 5.8 mph - N/A   Clear
6:35 PM 41.0 °F 38.0 °F 24.8 °F 53% 30.46 in 10.0 mi WNW 4.6 mph - N/A   Clear
6:55 PM 41.0 °F 39.0 °F 24.8 °F 53% 30.47 in 10.0 mi NNE 3.5 mph - N/A   Clear
7:15 PM 41.0 °F 38.0 °F 26.6 °F 57% 30.47 in 10.0 mi NW 4.6 mph - N/A   Clear
7:35 PM 39.2 °F 35.0 °F 24.8 °F 56% 30.48 in 10.0 mi NW 5.8 mph - N/A   Clear
7:55 PM 39.2 °F 33.0 °F 24.8 °F 56% 30.49 in 10.0 mi WNW 9.2 mph - N/A   Clear
8:15 PM 39.2 °F 35.0 °F 24.8 °F 56% 30.50 in 10.0 mi NW 5.8 mph - N/A   Clear
8:35 PM 39.2 °F 35.9 °F 26.6 °F 61% 30.50 in 10.0 mi WNW 4.6 mph - N/A   Clear
8:55 PM 39.2 °F 35.0 °F 26.6 °F 61% 30.52 in 10.0 mi WNW 5.8 mph - N/A   Clear
9:15 PM 37.4 °F 32.8 °F 26.6 °F 65% 30.52 in 10.0 mi WNW 5.8 mph - N/A   Clear
9:35 PM 37.4 °F 33.8 °F 26.6 °F 65% 30.52 in 10.0 mi WNW 4.6 mph - N/A   Clear
9:55 PM 37.4 °F 33.8 °F 26.6 °F 65% 30.53 in 10.0 mi West 4.6 mph - N/A   Clear
10:15 PM 37.4 °F 34.9 °F 26.6 °F 65% 30.54 in 10.0 mi WNW 3.5 mph - N/A   Clear
10:35 PM 37.4 °F 32.8 °F 26.6 °F 65% 30.53 in 10.0 mi West 5.8 mph - N/A   Clear
10:55 PM 37.4 °F 32.8 °F 26.6 °F 65% 30.52 in 10.0 mi WNW 5.8 mph - N/A   Clear
11:15 PM 35.6 °F 30.7 °F 26.6 °F 70% 30.53 in 10.0 mi WNW 5.8 mph - N/A   Clear
11:35 PM 35.6 °F 32.8 °F 26.6 °F 70% 30.53 in 10.0 mi WNW 3.5 mph - N/A   Clear
11:55 PM 35.6 °F 30.7 °F 26.6 °F 70% 30.52 in 10.0 mi NW 5.8 mph - N/A   Clear